ITY2133 LIML-LIRF

Flight info

Callsign ITY2133
Flight time N/A
Altitude 33000
Route EKPAL DCT TINKU DCT XIBIL
Aircraft A320/M-SDE3FGHIRWY/LB1

Departure

Time N/A
Airport Milano Linate Airport (LIML)

Arrival

Time 2026-05-01 07:53
Airport Rome–Fiumicino Leonardo da Vinci International Airport (LIRF)
Time Latitude Longitude Altitude Speed Heading
2026-05-01 07:23 43.11582 10.83923 30579 ft 455 kts 158°
2026-05-01 07:23 43.05601 10.86657 30042 ft 452 kts 159°
2026-05-01 07:24 43.02623 10.88013 29760 ft 450 kts 159°
2026-05-01 07:24 42.99661 10.89357 29492 ft 448 kts 159°
2026-05-01 07:24 42.96707 10.90695 29196 ft 446 kts 159°
2026-05-01 07:24 42.93771 10.92029 28914 ft 444 kts 159°
2026-05-01 07:25 42.90850 10.93357 28618 ft 441 kts 159°
2026-05-01 07:25 42.87948 10.94671 28083 ft 438 kts 161°
2026-05-01 07:25 42.85069 10.95979 27584 ft 435 kts 158°
2026-05-01 07:25 42.82336 10.97698 27117 ft 429 kts 147°
2026-05-01 07:26 42.79910 10.99993 26694 ft 421 kts 136°
2026-05-01 07:26 42.77847 11.02760 26260 ft 413 kts 125°
2026-05-01 07:26 42.76173 11.05883 25835 ft 404 kts 117°
2026-05-01 07:26 42.74668 11.09094 25417 ft 401 kts 117°
2026-05-01 07:27 42.73163 11.12279 24988 ft 399 kts 117°
2026-05-01 07:27 42.71665 11.15435 24558 ft 396 kts 117°
2026-05-01 07:27 42.70177 11.18565 24133 ft 393 kts 117°
2026-05-01 07:27 42.68694 11.21683 23662 ft 392 kts 117°
2026-05-01 07:28 42.67221 11.24776 23213 ft 388 kts 117°
2026-05-01 07:28 42.65761 11.27844 22776 ft 385 kts 117°
2026-05-01 07:28 42.64312 11.30891 22383 ft 382 kts 117°
2026-05-01 07:28 42.62874 11.33918 21910 ft 381 kts 116°
2026-05-01 07:29 42.61445 11.36932 21478 ft 378 kts 116°
2026-05-01 07:29 42.60026 11.39917 21047 ft 375 kts 116°
2026-05-01 07:29 42.58611 11.42878 20624 ft 372 kts 116°
2026-05-01 07:29 42.57206 11.45817 20216 ft 370 kts 116°
2026-05-01 07:30 42.55698 11.48653 19797 ft 374 kts 126°
2026-05-01 07:30 42.53788 11.51072 19376 ft 379 kts 139°
2026-05-01 07:30 42.51517 11.52942 18915 ft 385 kts 152°
2026-05-01 07:30 42.49007 11.54230 18457 ft 387 kts 158°
2026-05-01 07:31 42.46460 11.55421 17973 ft 386 kts 158°
2026-05-01 07:31 42.38992 11.58911 17182 ft 365 kts 158°
2026-05-01 07:32 42.34242 11.61138 16462 ft 361 kts 158°
2026-05-01 07:32 42.31891 11.62239 15915 ft 365 kts 158°
2026-05-01 07:33 42.27309 11.64939 14668 ft 347 kts 137°
2026-05-01 07:33 42.25675 11.67216 14070 ft 331 kts 118°
2026-05-01 07:33 42.24299 11.72729 12772 ft 302 kts 84°
2026-05-01 07:34 42.24510 11.75479 12121 ft 290 kts 70°
2026-05-01 07:34 42.26306 11.80073 10870 ft 271 kts 43°
2026-05-01 07:34 42.27588 11.81934 10259 ft 270 kts 43°
2026-05-01 07:35 42.28755 11.83910 9598 ft 272 kts 58°
2026-05-01 07:35 42.29313 11.86345 9138 ft 277 kts 81°
2026-05-01 07:35 42.29052 11.88931 8983 ft 286 kts 107°
2026-05-01 07:35 42.27940 11.91210 8981 ft 298 kts 134°
2026-05-01 07:36 42.26122 11.92584 8981 ft 306 kts 164°
2026-05-01 07:36 42.23991 11.92824 8983 ft 309 kts 178°
2026-05-01 07:36 42.21883 11.93267 8985 ft 306 kts 157°
2026-05-01 07:36 42.20055 11.94657 8881 ft 302 kts 135°
2026-05-01 07:37 42.17555 11.98988 8665 ft 292 kts 121°
2026-05-01 07:37 42.16375 12.01208 8602 ft 291 kts 121°
2026-05-01 07:37 42.15190 12.03425 8509 ft 290 kts 121°
2026-05-01 07:38 42.14009 12.05622 8454 ft 289 kts 122°
2026-05-01 07:38 42.12830 12.07816 8371 ft 288 kts 122°
2026-05-01 07:38 42.10508 12.12140 7647 ft 282 kts 122°
2026-05-01 07:39 42.09364 12.14270 7297 ft 279 kts 121°
2026-05-01 07:39 42.08231 12.16375 6946 ft 276 kts 121°
2026-05-01 07:39 42.06003 12.20510 6153 ft 270 kts 121°
2026-05-01 07:40 42.04905 12.22546 6018 ft 269 kts 122°
2026-05-01 07:40 42.03805 12.24589 6022 ft 270 kts 122°
2026-05-01 07:40 42.02705 12.26634 6019 ft 270 kts 121°
2026-05-01 07:40 42.01604 12.28683 6019 ft 270 kts 122°
2026-05-01 07:41 42.00504 12.30722 5963 ft 268 kts 121°
2026-05-01 07:41 41.99349 12.32683 5552 ft 269 kts 131°
2026-05-01 07:41 41.96174 12.35337 4740 ft 274 kts 158°
2026-05-01 07:42 41.94348 12.36088 4305 ft 274 kts 160°
2026-05-01 07:42 41.92555 12.36828 4018 ft 271 kts 162°
2026-05-01 07:42 41.90811 12.37550 4006 ft 254 kts 161°
2026-05-01 07:42 41.89159 12.38234 4009 ft 246 kts 161°
2026-05-01 07:43 41.87528 12.38910 4010 ft 245 kts 161°
2026-05-01 07:43 41.85901 12.39591 4014 ft 244 kts 161°
2026-05-01 07:43 41.82698 12.40936 4021 ft 237 kts 161°
2026-05-01 07:44 41.79621 12.42211 4013 ft 230 kts 160°
2026-05-01 07:44 41.76560 12.43486 4014 ft 231 kts 161°
2026-05-01 07:45 41.75033 12.44124 4013 ft 230 kts 161°
2026-05-01 07:45 41.73506 12.44760 4012 ft 229 kts 161°
2026-05-01 07:45 41.71985 12.45391 4000 ft 229 kts 163°
2026-05-01 07:45 41.70463 12.46024 3684 ft 230 kts 163°
2026-05-01 07:46 41.68939 12.46655 3396 ft 229 kts 163°
2026-05-01 07:46 41.67422 12.47276 3096 ft 228 kts 163°
2026-05-01 07:46 41.64372 12.48109 2561 ft 223 kts 192°
2026-05-01 07:47 41.63013 12.47172 2499 ft 223 kts 227°
2026-05-01 07:47 41.62253 12.45478 2514 ft 214 kts 250°
2026-05-01 07:47 41.61767 12.43615 2512 ft 211 kts 254°
2026-05-01 07:47 41.61328 12.41719 2510 ft 210 kts 258°
2026-05-01 07:48 41.61522 12.37942 2508 ft 204 kts 297°
2026-05-01 07:48 41.62251 12.36347 2510 ft 201 kts 316°
2026-05-01 07:48 41.63311 12.35172 2510 ft 199 kts 333°
2026-05-01 07:49 41.64594 12.34494 2516 ft 197 kts 344°
2026-05-01 07:49 41.67126 12.33439 2534 ft 181 kts 344°
2026-05-01 07:49 41.68315 12.32943 2522 ft 179 kts 345°
2026-05-01 07:50 41.69507 12.32448 2412 ft 180 kts 344°
2026-05-01 07:50 41.71842 12.31476 1961 ft 166 kts 347°
2026-05-01 07:50 41.72903 12.31033 1733 ft 152 kts 346°
2026-05-01 07:51 41.73868 12.30630 1552 ft 141 kts 346°
2026-05-01 07:51 41.74784 12.30249 1357 ft 137 kts 347°
2026-05-01 07:51 41.75685 12.29873 1172 ft 135 kts 348°
2026-05-01 07:52 41.77461 12.29134 799 ft 134 kts 348°
2026-05-01 07:52 41.78345 12.28765 640 ft 133 kts 348°
2026-05-01 07:52 41.79230 12.28397 470 ft 132 kts 346°
2026-05-01 07:53 41.80960 12.27672 117 ft 130 kts 348°
2026-05-01 07:53 41.81803 12.27307 22 ft 118 kts 349°
2026-05-01 07:53 41.82470 12.27042 11 ft 77 kts 343°
2026-05-01 07:53 41.82827 12.26893 15 ft 36 kts 343°
2026-05-01 07:54 41.83117 12.26683 10 ft 19 kts 318°
2026-05-01 07:55 41.83201 12.26417 12 ft 7 kts 186°
2026-05-01 07:55 41.83108 12.26451 12 ft 7 kts 162°
2026-05-01 07:56 41.82911 12.26534 11 ft 13 kts 162°
2026-05-01 07:56 41.82663 12.26637 11 ft 23 kts 162°
2026-05-01 07:57 41.82498 12.26706 13 ft 26 kts 162°
2026-05-01 07:57 41.82139 12.26856 11 ft 22 kts 162°
2026-05-01 07:58 41.81802 12.26997 13 ft 28 kts 162°
2026-05-01 07:58 41.81444 12.27147 12 ft 26 kts 162°
2026-05-01 07:59 41.81113 12.27285 12 ft 22 kts 162°
2026-05-01 07:59 41.80870 12.27342 12 ft 14 kts 189°
2026-05-01 08:00 41.80616 12.27079 14 ft 18 kts 249°
2026-05-01 08:01 41.80463 12.26524 15 ft 17 kts 250°
2026-05-01 08:01 41.80412 12.26382 15 ft 14 kts 223°
2026-05-01 08:01 41.80322 12.26383 14 ft 13 kts 160°
2026-05-01 08:02 41.80153 12.26367 14 ft 13 kts 205°
2026-05-01 08:02 41.80062 12.26311 14 ft 16 kts 204°
2026-05-01 08:03 41.79866 12.26190 16 ft 14 kts 205°
2026-05-01 08:03 41.79788 12.26141 15 ft 9 kts 207°
2026-05-01 08:03 41.79786 12.26009 14 ft 8 kts 296°
2026-05-01 08:04 41.79848 12.25836 15 ft 6 kts 293°
2026-05-01 08:04 41.79798 12.25765 14 ft 7 kts 204°
2026-05-01 08:05 41.79713 12.25694 14 ft 6 kts 259°
2026-05-01 08:05 41.79723 12.25652 14 ft 2 kts 294°
2026-05-01 08:05 41.79727 12.25639 16 ft 1 kts 295°